sat.trackr.live / text

‹ back to catalog

COSMOS 2439

NORAD 32956 · 2008-025D

PAYLOAD ACTIVE UNKNOWN

§ Identity

Operator
Country
CIS
Launch date
2008-05-23
Launch site
PLMSC
Launch vehicle
Mass (kg)
RCS (m²)
0.88

External: N2YO · Heavens-Above · Gunter

§ Orbital elements

Epoch: 2026-09-15T23:00:42.142176Z

Period
115.84 min
Inclination
82.5052°
Eccentricity
0.0022034
Mean motion
12.43072010 rev/d
Perigee alt
1,476.3 km
Apogee alt
1,511.0 km
Semi-major
7,871.7 km
B*
2.7738e-4
RAAN
301.3791°
Arg perigee
115.8867°
Mean anomaly
244.4487°
Rev number
83,099

§ Raw data

COSMOS 24391 32956U 08025D   26258.95882109  .00000049  00000+0  27738-3 0  99972 32956  82.5052 301.3791 0022034 115.8867 244.4487 12.43072010830992

JSON: /api/v1/satellites/32956 · /tle

For live sub-satellite position, see the globe view (requires WebGL).

§ Visibility from observer

Set your observer location to see the next 7 days of passes ≥ 10°. The values pass through the URL so the page stays shareable.

No JS? Fill the form by hand. The geolocation button needs JavaScript.